Location: Caltech
(34.1382°N, 118.1253°W)
Time: 19:49:07
(UTC-08:00)

OAO 2 Rocket - Visible Passes

Search period start: 08 December 2016 00:00
Search period end: 18 December 2016 00:00
Orbit: 677 x 746 km, 35.0° (Epoch: 08 December)

Date Brightness Start Highest point End Pass type
(mag) Time Alt. Az. Time Alt. Az. Time Alt. Az.
08 Dec 5.1 18:39:22 10° SSW 18:42:24 19° SSE 18:42:24 19° SSE visible
09 Dec 5.5 17:43:21 10° S 17:45:30 13° SE 17:47:39 10° ESE visible
09 Dec 5.2 19:24:51 10° SW 19:27:06 24° SW 19:27:06 24° SW visible
10 Dec 4.3 18:27:37 10° SW 18:32:09 31° SSE 18:32:47 30° SE visible
10 Dec 6.3 20:11:34 10° WSW 20:11:45 11° WSW 20:11:45 11° WSW visible
11 Dec 5.0 17:30:41 10° SSW 17:34:39 22° SSE 17:38:26 11° E visible
11 Dec 4.4 19:13:56 10° WSW 19:17:24 41° SW 19:17:24 41° SW visible
12 Dec 3.8 18:16:26 10° SW 18:21:26 48° SSE 18:23:01 36° ESE visible
12 Dec 6.0 20:00:59 10° W 20:01:59 16° W 20:01:59 16° W visible
13 Dec 4.4 17:19:07 10° SW 17:23:52 35° SSE 17:28:32 10° E visible
13 Dec 3.7 19:03:15 10° WSW 19:07:35 62° WSW 19:07:35 62° WSW visible
14 Dec 3.4 18:05:35 10° WSW 18:10:47 69° SSE 18:13:09 32° E visible
14 Dec 5.7 19:50:28 10° W 19:52:07 21° W 19:52:07 21° W visible
15 Dec 3.9 17:08:01 10° SW 17:13:09 54° SSE 17:18:11 10° E visible
15 Dec 3.3 18:52:41 10° W 18:57:41 80° WNW 18:57:41 80° WNW visible
16 Dec 3.3 17:54:56 10° WSW 18:00:12 88° SSE 18:03:14 25° E visible
16 Dec 5.3 19:39:56 10° W 19:42:12 26° W 19:42:12 26° W visible
17 Dec 3.2 18:42:09 10° W 18:47:25 80° N 18:47:47 75° NE visible
